• In Portugal
  • List of Countries
  • For 7 days
  • Water Temperature
  • Satellite Maps
  • Weather Map
  • Weather Widgets
  • user-avatar
    Login

    Hourly Weather Kirkuk

    Today, 26 September, Tuesday

    Time Temperature Precipitation Wind Pressure Humidity
    00:00 +32°C° 0 mm 1 mps 729 mmHg 17%
    01:00 +31°C° 0 mm 1 mps 729 mmHg 17%
    02:00 +31°C° 0 mm 2 mps 729 mmHg 18%
    03:00 +30°C° 0 mm 2 mps 729 mmHg 18%
    04:00 +30°C° 0 mm 2 mps 729 mmHg 18%
    05:00 +29°C° 0 mm 2 mps 729 mmHg 18%
    06:00 +29°C° 0 mm 2 mps 729 mmHg 19%
    07:00 +31°C° 0 mm 2 mps 729 mmHg 17%
    08:00 +34°C° 0 mm 2 mps 730 mmHg 15%
    09:00 +37°C° 0 mm 2 mps 730 mmHg 13%
    10:00 +38°C° 0 mm 2 mps 730 mmHg 13%
    11:00 +39°C° 0 mm 1 mps 730 mmHg 12%
    12:00 +40°C° 0 mm 1 mps 730 mmHg 12%
    13:00 +40°C° 0 mm 2 mps 729 mmHg 11%
    14:00 +42°C° 0 mm 3 mps 729 mmHg 11%
    15:00 +42°C° 0 mm 4 mps 729 mmHg 11%
    16:00 +40°C° 0 mm 3 mps 729 mmHg 11%
    17:00 +39°C° 0 mm 3 mps 729 mmHg 12%
    18:00 +38°C° 0 mm 2 mps 729 mmHg 12%
    19:00 +37°C° 0 mm 2 mps 729 mmHg 13%
    20:00 +36°C° 0 mm 2 mps 729 mmHg 14%
    21:00 +34°C° 0 mm 1 mps 729 mmHg 15%
    22:00 +33°C° 0 mm 1 mps 729 mmHg 16%
    23:00 +32°C° 0 mm 1 mps 729 mmHg 17%

    Tomorrow, 27 September, Wednesday

    Time Temperature Precipitation Wind Pressure Humidity
    00:00 +32°C° 0 mm 1 mps 729 mmHg 18%
    01:00 +31°C° 0 mm 2 mps 729 mmHg 19%
    02:00 +31°C° 0 mm 2 mps 729 mmHg 19%
    03:00 +30°C° 0 mm 2 mps 729 mmHg 20%
    04:00 +30°C° 0 mm 2 mps 729 mmHg 21%
    05:00 +30°C° 0 mm 2 mps 729 mmHg 21%
    06:00 +29°C° 0 mm 2 mps 729 mmHg 21%
    07:00 +31°C° 0 mm 2 mps 729 mmHg 19%
    08:00 +34°C° 0 mm 2 mps 730 mmHg 17%
    09:00 +35°C° 0 mm 1 mps 730 mmHg 15%
    10:00 +37°C° 0 mm 2 mps 730 mmHg 14%
    11:00 +38°C° 0 mm 3 mps 730 mmHg 13%
    12:00 +40°C° 0 mm 4 mps 730 mmHg 12%
    13:00 +40°C° 0 mm 4 mps 730 mmHg 12%
    14:00 +41°C° 0 mm 5 mps 729 mmHg 12%
    15:00 +41°C° 0 mm 6 mps 729 mmHg 12%
    16:00 +40°C° 0 mm 5 mps 729 mmHg 13%
    17:00 +39°C° 0 mm 5 mps 729 mmHg 14%
    18:00 +37°C° 0 mm 4 mps 729 mmHg 15%
    19:00 +36°C° 0 mm 4 mps 729 mmHg 17%
    20:00 +34°C° 0 mm 4 mps 729 mmHg 18%
    21:00 +33°C° 0 mm 4 mps 730 mmHg 19%
    22:00 +33°C° 0 mm 4 mps 730 mmHg 21%
    23:00 +32°C° 0 mm 4 mps 729 mmHg 22%

    Day after tomorrow, 28 September, Thursday

    Time Temperature Precipitation Wind Pressure Humidity
    00:00 +30°C° 0 mm 4 mps 729 mmHg 24%
    01:00 +29°C° 0 mm 3 mps 729 mmHg 26%
    02:00 +28°C° 0 mm 2 mps 729 mmHg 27%
    03:00 +27°C° 0 mm 2 mps 729 mmHg 29%
    04:00 +27°C° 0 mm 2 mps 729 mmHg 31%
    05:00 +26°C° 0 mm 1 mps 729 mmHg 33%
    06:00 +25°C° 0 mm 1 mps 729 mmHg 34%
    07:00 +27°C° 0 mm 1 mps 729 mmHg 32%
    08:00 +29°C° 0 mm 1 mps 730 mmHg 29%
    09:00 +30°C° 0 mm 1 mps 730 mmHg 26%
    10:00 +32°C° 0 mm 2 mps 730 mmHg 22%
    11:00 +34°C° 0 mm 3 mps 730 mmHg 19%
    12:00 +35°C° 0 mm 3 mps 730 mmHg 16%
    13:00 +36°C° 0 mm 4 mps 730 mmHg 15%
    14:00 +36°C° 0 mm 5 mps 730 mmHg 15%
    15:00 +37°C° 0 mm 5 mps 729 mmHg 14%
    16:00 +36°C° 0 mm 4 mps 729 mmHg 15%
    17:00 +35°C° 0 mm 4 mps 729 mmHg 16%
    18:00 +34°C° 0 mm 3 mps 729 mmHg 16%
    19:00 +33°C° 0 mm 3 mps 730 mmHg 18%
    20:00 +31°C° 0 mm 3 mps 730 mmHg 19%
    21:00 +30°C° 0 mm 2 mps 730 mmHg 20%
    22:00 +29°C° 0 mm 2 mps 730 mmHg 22%
    23:00 +29°C° 0 mm 2 mps 730 mmHg 23%

    29 September, Friday

    Time Temperature Precipitation Wind Pressure Humidity
    00:00 +28°C° 0 mm 1 mps 730 mmHg 25%
    01:00 +27°C° 0 mm 1 mps 730 mmHg 26%
    02:00 +27°C° 0 mm 1 mps 729 mmHg 27%
    03:00 +26°C° 0 mm 1 mps 729 mmHg 28%
    04:00 +26°C° 0 mm 2 mps 729 mmHg 27%
    05:00 +26°C° 0 mm 2 mps 729 mmHg 27%
    06:00 +26°C° 0 mm 2 mps 729 mmHg 27%
    07:00 +28°C° 0 mm 2 mps 730 mmHg 24%
    08:00 +30°C° 0 mm 2 mps 730 mmHg 21%
    09:00 +32°C° 0 mm 2 mps 730 mmHg 19%
    10:00 +33°C° 0 mm 1 mps 730 mmHg 17%
    11:00 +34°C° 0 mm 1 mps 730 mmHg 15%
    12:00 +35°C° 0 mm 1 mps 729 mmHg 13%
    13:00 +35°C° 0 mm 1 mps 729 mmHg 13%
    14:00 +37°C° 0 mm 2 mps 729 mmHg 13%
    15:00 +38°C° 0 mm 2 mps 728 mmHg 13%
    16:00 +37°C° 0 mm 2 mps 728 mmHg 14%
    17:00 +36°C° 0 mm 2 mps 728 mmHg 14%
    18:00 +34°C° 0 mm 1 mps 728 mmHg 15%
    19:00 +33°C° 0 mm 1 mps 728 mmHg 16%
    20:00 +32°C° 0 mm 1 mps 728 mmHg 16%
    21:00 +32°C° 0 mm 1 mps 729 mmHg 17%
    22:00 +32°C° 0 mm 2 mps 728 mmHg 16%
    23:00 +31°C° 0 mm 3 mps 728 mmHg 16%

    30 September, Saturday

    Time Temperature Precipitation Wind Pressure Humidity
    00:00 +31°C° 0 mm 3 mps 728 mmHg 16%
    01:00 +32°C° 0 mm 4 mps 727 mmHg 16%
    02:00 +30°C° 0 mm 4 mps 727 mmHg 16%
    03:00 +30°C° 0 mm 4 mps 727 mmHg 17%
    04:00 +30°C° 0 mm 4 mps 727 mmHg 17%
    05:00 +30°C° 0 mm 4 mps 727 mmHg 17%
    06:00 +30°C° 0 mm 4 mps 727 mmHg 16%
    07:00 +33°C° 0 mm 5 mps 727 mmHg 16%
    08:00 +34°C° 0 mm 5 mps 727 mmHg 15%
    09:00 +36°C° 0 mm 5 mps 727 mmHg 14%
    10:00 +38°C° 0 mm 6 mps 727 mmHg 12%
    11:00 +40°C° 0 mm 7 mps 727 mmHg 11%
    12:00 +41°C° 0 mm 8 mps 726 mmHg 10%
    13:00 +41°C° 0 mm 8 mps 726 mmHg 10%
    14:00 +41°C° 0 mm 8 mps 726 mmHg 10%
    15:00 +41°C° 0 mm 8 mps 725 mmHg 10%
    16:00 +39°C° 0 mm 7 mps 726 mmHg 12%
    17:00 +38°C° 0 mm 6 mps 726 mmHg 14%
    18:00 +35°C° 0 mm 6 mps 726 mmHg 16%
    19:00 +34°C° 0 mm 5 mps 727 mmHg 18%
    20:00 +33°C° 0 mm 5 mps 728 mmHg 21%
    21:00 +32°C° 0 mm 4 mps 728 mmHg 24%
    22:00 +30°C° 0 mm 4 mps 729 mmHg 26%
    23:00 +29°C° 0 mm 3 mps 729 mmHg 29%

    1 October, Sunday

    Time Temperature Precipitation Wind Pressure Humidity
    00:00 +28°C° 0 mm 3 mps 729 mmHg 32%
    01:00 +27°C° 0 mm 2 mps 729 mmHg 34%
    02:00 +27°C° 0 mm 2 mps 729 mmHg 36%
    03:00 +26°C° 0 mm 1 mps 730 mmHg 38%
    04:00 +25°C° 0 mm 1 mps 730 mmHg 39%
    05:00 +25°C° 0 mm 1 mps 730 mmHg 40%
    06:00 +24°C° 0 mm 1 mps 730 mmHg 41%
    07:00 +26°C° 0 mm 1 mps 731 mmHg 38%
    08:00 +28°C° 0 mm 1 mps 731 mmHg 34%
    09:00 +29°C° 0 mm 1 mps 732 mmHg 30%
    10:00 +30°C° 0 mm 2 mps 731 mmHg 27%
    11:00 +32°C° 0 mm 2 mps 731 mmHg 24%
    12:00 +34°C° 0 mm 3 mps 731 mmHg 21%
    13:00 +34°C° 0 mm 3 mps 731 mmHg 20%
    14:00 +35°C° 0 mm 4 mps 731 mmHg 18%
    15:00 +35°C° 0 mm 4 mps 730 mmHg 17%
    16:00 +34°C° 0 mm 4 mps 730 mmHg 18%
    17:00 +34°C° 0 mm 4 mps 730 mmHg 19%
    18:00 +33°C° 0 mm 4 mps 731 mmHg 21%
    19:00 +31°C° 0 mm 3 mps 731 mmHg 22%
    20:00 +30°C° 0 mm 3 mps 731 mmHg 24%
    21:00 +29°C° 0 mm 3 mps 731 mmHg 26%
    22:00 +29°C° 0 mm 3 mps 731 mmHg 28%
    23:00 +28°C° 0 mm 3 mps 731 mmHg 30%
    Show more